Weather History for KCVN - January, 2014

Change the Weather History Date:

Tuesday, January 14, 2014

  Actual Average Record
Temperature  
Mean Temperature 35 °F -  
Max Temperature 51 °F 50 °F 72 °F (1928)
Min Temperature 19 °F 23 °F -7 °F (1963)
Degree Days  
Heating Degree Days 30    
Moisture  
Dew Point 16 °F    
Average Humidity 44    
Maximum Humidity 74    
Minimum Humidity 28    
Precipitation  
Precipitation 0.00 in - - ()
Sea Level Pressure  
Sea Level Pressure 30.27 in    
Wind  
Wind Speed 13 mph (North)    
Max Wind Speed 22 mph    
Max Gust Speed 29 mph    
Visibility 10 miles    
Events      
Averages and records for this station are not official NWS values.
T = Trace of Precipitation, MM = Missing Value Source: NWS Daily Summary

Daily Weather History Graph

Daily Weather History Graph

Search for Another Location

Airport or City:

Trip Planner

Search our weather history database for the weather conditions in past years. The results will help you decide how hot, cold, wet, or windy it might be!

Date:

Astronomy

Jan. 14, 2014 Rise Set
Actual Time 6:58 AM MST 5:04 PM MST
Civil Twilight 6:31 AM MST 5:31 PM MST
Nautical Twilight 6:00 AM MST 6:02 PM MST
Astronomical Twilight 5:30 AM MST 6:32 PM MST
Moon 4:10 PM MST (1/14) 5:36 AM MST (1/14)
Length of Visible Light 11h 00m
Length of Day
10h 05m
Waxing Gibbous, 98% of the Moon is Illuminated
Jan 14
Waxing Gibbous
Jan 15
Full
Jan 23
Last Quarter
Jan 30
New
Feb 6
First Quarter

Hourly Weather History & Observations

Time (MST) Temp. Windchill Dew Point Humidity Pressure Visibility Wind Dir Wind Speed Gust Speed Precip Events Conditions
12:15 AM 37.4 °F 29.3 °F 12.2 °F 36% 30.05 in 10.0 mi West 12.7 mph - N/A   Clear
12:35 AM 37.4 °F 28.9 °F 12.2 °F 36% 30.05 in 10.0 mi West 13.8 mph - N/A   Clear
12:55 AM 37.4 °F 28.2 °F 14.0 °F 38% 30.05 in 10.0 mi WNW 16.1 mph - N/A   Clear
1:15 AM 37.4 °F 27.8 °F 12.2 °F 36% 30.05 in 10.0 mi West 17.3 mph - N/A   Clear
1:35 AM 37.4 °F 28.2 °F 12.2 °F 36% 30.04 in 10.0 mi WNW 16.1 mph - N/A   Clear
1:55 AM 35.6 °F 26.6 °F 12.2 °F 38% 30.04 in 10.0 mi WNW 13.8 mph - N/A   Clear
2:15 AM 35.6 °F 27.5 °F 12.2 °F 38% 30.04 in 10.0 mi WNW 11.5 mph - N/A   Clear
2:35 AM 30.2 °F 23.4 °F 10.4 °F 44% 30.04 in 10.0 mi West 6.9 mph - N/A   Clear
2:55 AM 30.2 °F 21.3 °F 10.4 °F 44% 30.05 in 10.0 mi WSW 10.4 mph - N/A   Clear
3:15 AM 30.2 °F 20.2 °F 12.2 °F 47% 30.06 in 10.0 mi West 12.7 mph - N/A   Clear
3:35 AM 28.4 °F 19.7 °F 12.2 °F 51% 30.05 in 10.0 mi West 9.2 mph - N/A   Clear
3:55 AM 28.4 °F 19.7 °F 10.4 °F 47% 30.06 in 10.0 mi West 9.2 mph - N/A   Clear
4:15 AM 26.6 °F 18.2 °F 10.4 °F 51% 30.07 in 10.0 mi WNW 8.1 mph - N/A   Clear
4:35 AM 23.0 °F 15.8 °F 8.6 °F 54% 30.07 in 10.0 mi West 5.8 mph - N/A   Clear
4:55 AM 26.6 °F 16.2 °F 10.4 °F 51% 30.08 in 10.0 mi NW 11.5 mph - N/A   Clear
5:15 AM 33.8 °F 23.9 °F 12.2 °F 41% 30.08 in 10.0 mi NW 15.0 mph - N/A   Clear
5:35 AM 30.2 °F 20.2 °F 12.2 °F 47% 30.10 in 10.0 mi NW 12.7 mph - N/A   Clear
5:55 AM 26.6 °F 15.7 °F 10.4 °F 51% 30.11 in 10.0 mi NW 12.7 mph - N/A   Clear
6:15 AM 28.4 °F 18.5 °F 12.2 °F 51% 30.13 in 10.0 mi NW 11.5 mph - N/A   Clear
6:35 AM 30.2 °F 20.8 °F 12.2 °F 47% 30.14 in 10.0 mi NNW 11.5 mph - N/A   Clear
6:55 AM 30.2 °F 20.2 °F 12.2 °F 47% 30.15 in 10.0 mi NNW 12.7 mph - N/A   Clear
7:15 AM 33.8 °F 24.3 °F 14.0 °F 44% 30.17 in 10.0 mi North 13.8 mph - N/A   Clear
7:35 AM 35.6 °F 26.6 °F 12.2 °F 38% 30.20 in 10.0 mi North 13.8 mph - N/A   Clear
7:55 AM 37.4 °F 30.3 °F 14.0 °F 38% 30.21 in 10.0 mi North 10.4 mph - N/A   Clear
8:15 AM 39.2 °F 33.0 °F 14.0 °F 36% 30.22 in 10.0 mi North 9.2 mph - N/A   Clear
8:35 AM 42.8 °F 36.6 °F 15.8 °F 34% 30.24 in 10.0 mi North 11.5 mph - N/A   Clear
8:55 AM 44.6 °F 38.8 °F 17.6 °F 34% 30.25 in 10.0 mi NNE 11.5 mph - N/A   Clear
9:15 AM 46.4 °F 40.4 °F 17.6 °F 32% 30.27 in 10.0 mi NNE 13.8 mph - N/A   Clear
9:35 AM 48.2 °F - 19.4 °F 32% 30.28 in 10.0 mi NNE 16.1 mph - N/A   Clear
9:55 AM 48.2 °F - 19.4 °F 32% 30.29 in 10.0 mi NNE 20.7 mph 25.3 mph N/A   Clear
10:15 AM 51.8 °F - 19.4 °F 28% 30.30 in 10.0 mi NNE 21.9 mph 27.6 mph N/A   Clear
10:35 AM 51.8 °F - 19.4 °F 28% 30.30 in 10.0 mi NNE 20.7 mph 24.2 mph N/A   Clear
10:55 AM 51.8 °F - 19.4 °F 28% 30.30 in 10.0 mi NNE 21.9 mph 25.3 mph N/A   Clear
11:15 AM 51.8 °F - 21.2 °F 30% 30.30 in 10.0 mi NNE 20.7 mph 24.2 mph N/A   Clear
11:35 AM 51.8 °F - 21.2 °F 30% 30.29 in 10.0 mi NNE 16.1 mph 28.8 mph N/A   Clear
11:55 AM 51.8 °F - 21.2 °F 30% 30.29 in 10.0 mi NE 17.3 mph 23.0 mph N/A   Clear
12:15 PM 51.8 °F - 21.2 °F 30% 30.29 in 10.0 mi NE 15.0 mph 19.6 mph N/A   Clear
12:35 PM 51.8 °F - 21.2 °F 30% 30.28 in 10.0 mi NNE 13.8 mph 23.0 mph N/A   Clear
12:55 PM 51.8 °F - 21.2 °F 30% 30.28 in 10.0 mi North 19.6 mph 23.0 mph N/A   Clear
1:15 PM 51.8 °F - 21.2 °F 30% 30.28 in 10.0 mi North 17.3 mph 24.2 mph N/A   Clear
1:35 PM 51.8 °F - 21.2 °F 30% 30.29 in 10.0 mi NNE 15.0 mph 25.3 mph N/A   Clear
1:55 PM 51.8 °F - 23.0 °F 33% 30.30 in 10.0 mi NNE 12.7 mph 26.5 mph N/A   Clear
2:15 PM 51.8 °F - 23.0 °F 33% 30.30 in 10.0 mi NNE 17.3 mph 24.2 mph N/A   Partly Cloudy
2:35 PM 51.8 °F - 24.8 °F 35% 30.32 in 10.0 mi NNE 17.3 mph 21.9 mph N/A   Clear
2:55 PM 50.0 °F - 24.8 °F 37% 30.33 in 10.0 mi NNE 18.4 mph - N/A   Clear
3:15 PM 48.2 °F - 24.8 °F 40% 30.33 in 10.0 mi NE 16.1 mph 24.2 mph N/A   Clear
3:35 PM 48.2 °F - 23.0 °F 37% 30.34 in 10.0 mi NNE 18.4 mph 25.3 mph N/A   Clear
3:55 PM 46.4 °F 39.5 °F 23.0 °F 40% 30.35 in 10.0 mi NE 17.3 mph 21.9 mph N/A   Clear
4:15 PM 46.4 °F 39.5 °F 21.2 °F 37% 30.36 in 10.0 mi NE 17.3 mph - N/A   Clear
4:35 PM 44.6 °F 37.4 °F 21.2 °F 39% 30.38 in 10.0 mi NNE 16.1 mph 20.7 mph N/A   Clear
4:55 PM 42.8 °F 35.1 °F 21.2 °F 42% 30.37 in 10.0 mi NE 16.1 mph - N/A   Clear
5:15 PM 41.0 °F 34.7 °F 19.4 °F 42% 30.38 in 10.0 mi NE 10.4 mph - N/A   Clear
5:35 PM 37.4 °F 29.8 °F 19.4 °F 48% 30.39 in 10.0 mi NE 11.5 mph - N/A   Clear
5:55 PM 37.4 °F 29.3 °F 19.4 °F 48% 30.41 in 10.0 mi NNE 12.7 mph - N/A   Clear
6:15 PM 35.6 °F 27.5 °F 19.4 °F 52% 30.42 in 10.0 mi NE 11.5 mph - N/A   Clear
6:35 PM 35.6 °F 26.6 °F 17.6 °F 48% 30.42 in 10.0 mi NE 13.8 mph - N/A   Clear
6:55 PM 33.8 °F 26.4 °F 17.6 °F 52% 30.43 in 10.0 mi ENE 9.2 mph - N/A   Clear
7:15 PM 32.0 °F 22.1 °F 17.6 °F 55% 30.44 in 10.0 mi NE 13.8 mph - N/A   Clear
7:35 PM 32.0 °F 23.6 °F 15.8 °F 51% 30.43 in 10.0 mi ENE 10.4 mph - N/A   Clear
7:55 PM 30.2 °F 21.9 °F 15.8 °F 55% 30.45 in 10.0 mi NE 9.2 mph - N/A   Clear
8:15 PM 28.4 °F 19.1 °F 15.8 °F 59% 30.46 in 10.0 mi NNE 10.4 mph - N/A   Clear
8:35 PM 26.6 °F 16.8 °F 15.8 °F 64% 30.46 in 10.0 mi NNE 10.4 mph - N/A   Clear
8:55 PM 26.6 °F 16.8 °F 15.8 °F 64% 30.46 in 10.0 mi NNE 10.4 mph - N/A   Clear
9:15 PM 26.6 °F 17.5 °F 14.0 °F 59% 30.45 in 10.0 mi NE 9.2 mph - N/A   Clear
9:35 PM 24.8 °F 17.9 °F 12.2 °F 59% 30.45 in 10.0 mi NE 5.8 mph - N/A   Clear
9:55 PM 23.0 °F 13.9 °F 10.4 °F 59% 30.45 in 10.0 mi NNE 8.1 mph - N/A   Clear
10:15 PM 21.2 °F 13.6 °F 12.2 °F 68% 30.45 in 10.0 mi North 5.8 mph - N/A   Clear
10:35 PM 23.0 °F 13.9 °F 12.2 °F 63% 30.45 in 10.0 mi North 8.1 mph - N/A   Clear
10:55 PM 21.2 °F 14.9 °F 12.2 °F 68% 30.44 in 10.0 mi West 4.6 mph - N/A   Clear
11:15 PM 19.4 °F 11.5 °F 12.2 °F 74% 30.43 in 10.0 mi WNW 5.8 mph - N/A   Clear
11:35 PM 21.2 °F 12.6 °F 12.2 °F 68% 30.44 in 10.0 mi NNW 6.9 mph - N/A   Clear
11:55 PM 21.2 °F 13.6 °F 12.2 °F 68% 30.44 in 10.0 mi NW 5.8 mph - N/A   Clear